Wind_Speed
20 21 22 19 20 24 18 20 18 19 19 18 18 19 18 19 17 18 17 17 15 18 17 16 17 18 17 8 12 10 5 4 4 15 15 15 12 8 5 5 4 4 5 8 14 19 6
17 20 22 22 21 19 21 23 19 18 19 19 19 19 19 19 18 17 17 15 14 15 17 15 16 17 16 8 8 8 16 12 6 11 14 15 6 12 5 5 6 4 8 13 9 6 5
19 20 22 24 25 22 16 18 21 18 19 19 20 20 20 19 18 16 16 14 14 13 16 14 15 16 19 24 11 9 9 8 8 5 7 13 15 7 7 2 4 6 4 4 14 12 3
20 20 22 24 26 24 21 20 14 18 19 20 21 21 20 18 18 17 15 14 13 13 14 14 13 14 14 17 14 18 10 12 13 8 5 4 7 11 5 2 5 3 4 3 5 18 9
21 20 20 22 22 25 25 23 19 22 20 20 20 21 20 18 19 16 13 13 12 12 13 12 11 9 13 9 10 11 18 15 11 7 6 7 8 5 3 4 5 6 2 3 3 24 1
21 22 21 20 23 25 24 26 20 22 20 19 20 20 21 18 18 15 11 10 10 11 10 9 12 6 13 3 5 6 17 19 11 4 6 7 6 3 3 4 3 3 1 3 3 7 17
21 22 21 19 21 23 25 29 32 20 21 20 20 19 21 19 16 15 8 7 4 4 11 11 5 7 8 3 5 7 14 20 11 7 5 4 4 5 7 7 5 3 3 4 2 4 9
25 25 22 21 20 20 22 23 28 20 20 16 20 18 20 19 14 13 8 3 2 5 9 17 25 30 26 23 9 6 13 14 8 5 4 5 4 8 6 5 5 4 5 4 5 7 8
28 27 25 22 20 19 20 19 28 29 15 18 17 17 18 18 13 11 8 6 3 4 5 9 17 19 23 10 8 10 18 12 5 6 5 6 3 8 5 4 4 4 6 6 6 7 7
29 28 27 25 21 21 20 22 22 28 14 18 17 15 16 16 8 8 5 5 1 2 3 6 6 8 15 9 4 16 17 12 3 10 8 5 5 4 4 5 7 5 7 15 17 4 5
29 29 28 25 21 22 20 21 20 27 22 13 16 15 15 12 8 6 5 5 4 2 2 3 4 4 16 15 4 9 14 5 8 6 7 8 5 4 3 6 8 6 10 11 6 6 5
30 29 28 26 23 22 20 21 19 21 31 14 16 15 15 14 13 6 6 5 6 4 6 3 7 6 6 5 2 4 14 5 6 5 1 5 1 3 6 2 5 12 8 9 5 3 2
32 30 28 26 23 22 20 21 18 17 32 12 14 16 16 15 7 7 5 5 3 4 4 5 5 6 4 5 2 3 6 6 6 5 3 1 3 3 4 4 4 7 6 3 1 1 4
32 31 29 26 24 22 21 20 18 16 27 13 14 18 19 19 11 10 5 1 5 6 6 1 5 7 6 5 4 3 7 6 1 5 4 5 1 6 3 6 7 3 7 5 5 5 3
33 33 31 28 24 23 22 20 19 17 18 18 13 17 25 18 13 12 5 3 7 6 5 7 5 5 4 3 5 4 7 9 7 7 6 5 2 2 1 2 6 3 3 5 7 3 3
32 32 31 29 25 23 21 20 18 17 17 11 13 17 31 17 13 15 3 5 5 5 4 1 6 5 7 6 5 4 7 5 6 9 2 4 4 3 2 4 8 4 6 3 3 4 3
34 31 31 29 25 23 21 19 18 19 22 6 15 6 6 15 18 11 4 6 5 13 10 7 5 5 6 7 6 3 7 1 3 4 5 4 4 2 3 5 4 2 3 6 5 3 4
32 32 30 28 25 23 22 19 16 22 15 13 10 2 4 26 7 5 5 5 4 6 6 7 5 4 8 6 3 4 7 5 4 7 7 2 5 4 3 3 2 3 4 4 4 3 2
32 31 30 28 25 23 22 20 17 25 19 23 12 8 6 31 5 3 4 5 4 3 3 3 3 4 3 6 6 3 4 1 4 3 7 6 3 4 6 6 5 6 3 4 6 3 3
31 32 31 28 25 23 22 20 18 26 14 16 8 2 6 12 5 4 4 6 6 8 6 5 3 5 5 4 5 5 3 3 3 4 7 7 4 6 7 6 4 4 4 3 4 3 5
31 28 31 28 24 24 22 23 20 26 11 11 12 5 7 6 7 3 0 3 4 5 6 4 1 4 6 5 4 4 3 3 5 2 4 4 5 4 6 4 6 4 3 5 4 4 2
30 30 30 28 24 25 21 22 22 23 12 14 10 4 3 7 15 8 3 6 7 6 3 3 3 4 5 9 7 8 8 3 5 4 4 4 2 1 9 8 7 6 7 9 6 6 7
30 32 29 26 24 24 22 21 22 19 10 10 20 11 5 7 6 8 5 6 8 3 6 3 2 4 5 4 9 16 7 11 9 7 4 4 6 3 2 2 5 4 2 3 4 3 7
29 29 27 24 23 21 19 20 22 26 17 14 19 15 6 3 5 11 3 8 5 6 4 1 3 3 10 42 40 32 32 25 23 10 4 6 5 3 4 3 1 2 4 6 11 5 5
29 27 24 23 21 19 20 19 18 22 15 23 15 20 5 1 4 8 18 6 4 4 1 1 2 19 18 18 7 7 6 7 7 8 7 5 5 4 5 3 1 1 4 6 5 2 4
27 24 22 19 18 18 18 20 21 27 20 31 21 26 10 6 4 4 10 9 4 3 2 3 20 15 3 4 5 4 3 5 2 3 5 7 8 5 3 5 5 6 5 8 6 1 15
23 21 19 18 18 17 17 18 21 23 16 30 23 26 19 7 3 2 4 6 6 2 3 3 5 3 3 3 4 3 2 3 4 6 3 4 4 4 2 2 5 4 8 10 4 6 27
20 18 16 15 15 16 15 17 21 21 20 31 26 22 24 7 11 4 6 5 6 7 5 8 5 3 4 5 4 3 4 2 4 3 4 4 5 2 3 4 3 1 9 7 5 11 30
17 14 14 13 14 13 16 20 23 16 31 30 21 27 23 19 9 11 8 7 10 8 9 9 5 5 5 5 2 4 3 2 4 2 2 1 5 6 4 4 2 2 1 6 17 33 27
Wind_Direction
280 276 283 281 273 270 287 286 299 308 312 311 304 294 289 287 287 285 283 284 288 293 294 298 300 303 308 287 259 253 261 303 174 188 195 193 196 180 182 199 198 215 271 291 280 286 281
295 279 275 275 281 276 275 278 282 296 307 312 310 303 293 288 287 285 281 281 282 286 288 293 294 297 299 286 264 250 242 241 220 206 203 205 214 208 206 214 178 218 251 288 309 29 62
299 281 272 277 274 276 279 275 270 284 296 306 309 310 301 288 287 284 281 279 279 277 282 287 288 294 287 261 267 264 244 204 191 212 227 225 215 181 191 234 260 271 287 31 18 5 81
299 296 277 274 272 268 272 279 269 273 289 297 307 311 310 293 286 283 279 276 274 272 275 282 288 293 269 274 254 255 233 205 187 200 251 224 200 233 239 284 358 21 51 60 10 4 22
292 295 297 277 282 270 268 271 270 262 276 290 300 310 312 300 287 281 279 275 271 270 270 276 283 275 264 271 272 254 222 207 195 233 200 134 146 195 159 88 13 0 228 79 1 20 259
284 288 290 289 273 275 273 269 276 262 265 278 290 305 311 305 290 283 281 278 271 267 257 261 248 279 254 255 281 242 199 201 199 189 144 183 180 111 46 85 206 247 50 79 63 8 65
281 282 287 286 282 281 272 260 256 256 255 267 282 296 307 307 292 285 278 283 253 251 230 215 199 229 283 251 300 220 202 196 197 192 154 183 119 184 199 187 173 172 121 108 128 183 70
274 281 283 284 281 276 282 267 267 274 242 260 277 290 303 306 291 279 280 240 115 310 295 252 248 257 255 272 298 248 194 171 167 180 123 32 224 205 189 156 164 177 129 102 82 111 88
270 278 283 280 277 273 284 275 252 256 244 250 265 284 298 306 287 276 260 176 281 309 259 271 232 240 240 238 221 239 184 169 135 149 164 147 247 128 163 199 190 193 166 176 145 103 79
263 269 280 277 270 270 276 284 265 251 263 239 254 274 296 308 284 257 216 180 216 279 11 261 216 237 189 182 251 222 189 162 154 180 144 205 244 188 170 232 151 265 188 145 148 117 155
260 261 270 278 271 267 273 282 281 246 268 224 242 264 287 300 265 237 180 185 177 186 322 191 174 158 170 167 125 207 190 184 157 154 125 233 173 156 173 219 160 224 122 124 110 85 106
258 258 262 274 270 261 268 279 280 245 253 218 233 252 274 287 266 226 217 190 159 57 249 197 145 154 147 201 136 140 172 165 146 120 154 215 187 183 208 110 148 132 83 63 57 84 47
253 253 256 265 266 258 262 271 278 264 241 229 225 247 265 273 255 224 241 171 88 177 310 197 168 144 135 159 179 155 153 144 146 118 226 17 241 269 183 128 91 72 82 67 2 25 226
248 248 252 256 260 261 260 267 273 270 242 223 222 244 261 263 254 244 274 154 195 216 222 178 116 119 166 146 238 159 120 173 204 108 119 159 279 185 191 182 173 143 149 155 209 192 229
246 248 247 249 254 259 257 262 273 272 238 233 238 246 262 246 265 234 231 187 210 207 199 153 79 106 198 198 144 135 168 180 189 181 141 147 279 324 338 116 125 179 80 151 106 52 96
243 242 240 243 249 252 251 256 268 259 222 196 234 251 262 248 238 200 195 247 240 217 345 165 149 152 171 185 145 134 166 175 195 200 160 191 105 24 112 88 42 124 151 84 28 140 242
240 238 237 238 243 247 244 253 262 257 203 267 207 240 263 193 181 174 209 239 276 271 248 187 182 150 178 153 147 141 180 1 216 157 159 135 107 290 49 21 161 63 63 55 109 109 161
237 234 229 233 239 242 241 246 262 238 246 185 189 190 235 166 146 192 220 212 280 271 232 244 165 131 164 135 121 117 158 221 161 163 148 132 113 70 96 330 63 88 99 116 116 221 72
236 227 224 229 235 239 237 241 258 242 264 198 171 224 213 172 168 216 266 276 266 294 283 314 229 174 130 134 112 125 131 48 168 121 158 185 32 85 357 355 5 65 44 88 97 95 168
227 222 223 226 231 234 237 237 250 216 219 180 173 203 156 205 223 161 182 259 228 258 253 244 259 105 105 94 26 152 117 46 99 99 106 97 88 146 174 193 143 86 46 91 99 108 159
217 217 217 219 228 230 235 234 242 238 228 202 192 235 176 185 221 198 234 262 203 241 222 222 240 194 149 115 91 114 106 103 44 107 61 88 88 91 31 83 83 82 70 58 81 123 118
217 212 211 217 224 230 231 233 242 246 262 225 178 230 187 175 173 183 204 241 212 212 265 240 214 154 184 146 167 180 132 144 173 38 75 29 110 1 36 33 77 85 72 82 68 101 69
211 206 209 214 221 230 223 225 246 226 234 208 213 246 287 178 162 172 217 238 219 216 243 237 255 116 106 177 141 135 103 111 126 125 107 88 134 88 118 86 31 38 253 105 111 76 135
195 198 204 212 219 227 218 227 238 255 239 241 218 219 247 232 177 202 229 211 238 224 234 209 163 105 124 112 100 87 77 67 62 41 91 116 91 80 129 63 68 273 325 130 109 64 89
193 197 206 213 215 219 218 230 249 236 230 231 223 202 293 304 182 187 220 228 278 230 350 83 70 136 128 113 71 62 2 36 16 36 30 86 112 79 127 118 289 36 196 159 142 179 135
191 198 210 211 213 210 215 228 228 234 227 212 224 218 260 316 244 232 209 223 183 197 13 58 127 145 105 70 72 108 150 158 108 55 53 62 69 103 110 127 184 228 177 180 129 2 161
190 200 205 209 209 213 221 233 236 225 226 210 216 221 225 280 277 307 205 200 195 174 122 125 154 116 59 76 82 121 99 179 139 132 155 37 25 107 107 129 287 244 163 154 81 229 166
195 203 208 207 210 211 228 238 240 232 210 200 211 221 217 269 289 288 242 216 182 192 146 161 102 356 58 71 110 166 115 184 88 154 167 143 124 129 91 88 249 342 126 157 175 138 166
200 205 211 206 205 235 234 236 228 220 189 193 212 216 224 248 273 300 245 221 212 216 156 152 149 132 148 93 78 120 95 92 135 161 30 85 167 163 161 198 318 314 213 160 154 155 160
Height
1521 1521 1521 1520 1519 1520 1519 1518 1518 1516 1515 1514 1512 1512 1511 1510 1509 1508 1508 1509 1508 1508 1508 1507 1505 1504 1504 1502 1498 1498 1497 1498 1500 1502 1504 1506 1509 1511 1514 1513 1513 1514 1508 1506 1503 1500 1501
1518 1517 1517 1517 1516 1516 1516 1515 1515 1515 1514 1512 1511 1510 1509 1507 1506 1505 1505 1505 1505 1505 1504 1504 1503 1502 1503 1502 1494 1494 1494 1496 1499 1501 1503 1504 1507 1508 1510 1510 1512 1508 1507 1504 1502 1503 1504
1514 1513 1513 1513 1513 1512 1512 1512 1512 1512 1512 1511 1510 1508 1507 1505 1502 1501 1502 1502 1502 1501 1502 1501 1501 1500 1499 1491 1491 1491 1493 1494 1497 1500 1501 1502 1506 1508 1508 1508 1507 1506 1507 1504 1508 1508 1509
1511 1509 1509 1508 1509 1509 1508 1509 1508 1508 1509 1508 1507 1506 1503 1501 1500 1499 1499 1499 1499 1498 1498 1498 1498 1499 1492 1486 1486 1488 1491 1493 1495 1498 1500 1502 1503 1507 1508 1507 1506 1508 1509 1519 1515 1510 1510
1508 1506 1505 1504 1504 1504 1504 1505 1504 1505 1506 1506 1505 1503 1501 1498 1498 1496 1496 1496 1495 1495 1495 1496 1497 1497 1487 1482 1482 1484 1487 1491 1495 1497 1499 1501 1503 1504 1506 1511 1520 1518 1523 1518 1516 1519 1516
1504 1503 1502 1500 1499 1499 1499 1501 1501 1501 1501 1503 1502 1501 1499 1496 1495 1494 1493 1493 1493 1493 1493 1494 1494 1498 1483 1481 1480 1481 1484 1488 1493 1495 1498 1500 1501 1505 1510 1517 1535 1523 1520 1523 1529 1535 1528
1500 1499 1497 1496 1496 1495 1494 1495 1497 1496 1498 1499 1500 1499 1497 1494 1493 1492 1492 1492 1495 1493 1489 1483 1483 1481 1479 1479 1479 1479 1481 1485 1491 1494 1497 1497 1504 1512 1509 1507 1508 1510 1516 1526 1534 1534 1537
1495 1494 1493 1492 1491 1491 1490 1491 1492 1492 1493 1494 1496 1496 1494 1492 1491 1491 1491 1491 1492 1494 1486 1478 1478 1476 1477 1478 1481 1478 1479 1483 1488 1495 1494 1501 1506 1499 1499 1503 1507 1511 1518 1535 1535 1534 1537
1489 1489 1489 1488 1487 1486 1486 1486 1487 1489 1490 1491 1492 1492 1491 1489 1489 1489 1489 1491 1492 1491 1486 1472 1469 1470 1472 1477 1477 1476 1478 1478 1484 1492 1494 1501 1494 1493 1495 1499 1505 1509 1516 1528 1529 1536 1539
1483 1483 1484 1483 1482 1482 1482 1481 1481 1484 1485 1487 1489 1489 1489 1488 1491 1487 1488 1489 1490 1489 1493 1471 1466 1462 1467 1472 1473 1473 1476 1477 1482 1489 1493 1495 1488 1490 1495 1499 1501 1509 1498 1509 1523 1530 1549
1477 1477 1478 1478 1478 1477 1478 1478 1477 1479 1481 1482 1485 1486 1487 1487 1486 1486 1487 1488 1489 1490 1502 1462 1462 1461 1462 1467 1467 1469 1473 1475 1480 1482 1488 1492 1488 1490 1494 1492 1493 1500 1498 1509 1522 1531 1538
1470 1471 1472 1473 1473 1473 1474 1473 1473 1473 1476 1479 1481 1483 1484 1484 1484 1486 1485 1486 1489 1499 1496 1459 1456 1459 1463 1463 1464 1468 1470 1474 1476 1480 1483 1485 1484 1484 1485 1484 1487 1496 1507 1519 1526 1534 1549
1463 1464 1466 1468 1468 1468 1469 1469 1469 1470 1472 1473 1477 1479 1480 1481 1482 1483 1484 1486 1495 1497 1457 1457 1457 1457 1461 1464 1465 1467 1470 1475 1484 1495 1493 1484 1484 1480 1479 1486 1491 1496 1512 1543 1546 1548 1550
1455 1458 1460 1462 1463 1463 1464 1465 1466 1465 1469 1470 1472 1474 1476 1477 1480 1482 1484 1487 1489 1464 1459 1446 1450 1458 1463 1461 1464 1466 1471 1480 1475 1479 1496 1498 1500 1482 1476 1479 1489 1492 1503 1531 1533 1552 1545
1447 1450 1453 1456 1458 1458 1459 1460 1461 1461 1464 1466 1468 1471 1470 1473 1477 1480 1486 1484 1469 1457 1447 1447 1451 1460 1461 1458 1462 1464 1471 1478 1473 1472 1487 1495 1490 1476 1476 1475 1479 1494 1507 1503 1530 1538 1545
1438 1442 1445 1449 1452 1453 1454 1456 1457 1458 1461 1462 1465 1468 1464 1470 1474 1478 1483 1470 1457 1447 1443 1443 1452 1454 1466 1462 1463 1465 1470 1467 1469 1467 1467 1476 1492 1479 1477 1478 1481 1483 1494 1512 1524 1539 1540
1430 1434 1438 1443 1446 1447 1449 1451 1453 1453 1457 1460 1465 1467 1461 1462 1469 1476 1474 1465 1451 1442 1444 1444 1444 1453 1454 1458 1460 1463 1468 1464 1463 1466 1468 1473 1483 1486 1481 1491 1492 1494 1500 1511 1518 1530 1539
1421 1427 1431 1436 1440 1442 1444 1446 1448 1448 1452 1455 1459 1464 1457 1458 1466 1466 1465 1457 1448 1441 1439 1438 1437 1440 1449 1450 1458 1460 1464 1464 1462 1462 1471 1471 1486 1505 1497 1491 1488 1489 1499 1507 1525 1527 1542
1414 1419 1425 1430 1434 1436 1439 1441 1444 1443 1449 1455 1455 1457 1453 1456 1462 1463 1458 1453 1449 1442 1437 1435 1434 1434 1437 1449 1460 1459 1459 1460 1460 1461 1469 1471 1492 1513 1510 1500 1491 1499 1501 1507 1514 1524 1536
1406 1412 1419 1424 1428 1431 1433 1436 1438 1440 1443 1449 1452 1455 1452 1456 1454 1455 1455 1452 1449 1438 1438 1434 1432 1432 1438 1447 1451 1460 1460 1460 1460 1462 1464 1466 1491 1498 1516 1504 1500 1503 1506 1505 1511 1528 1537
1400 1406 1412 1418 1422 1426 1429 1431 1435 1434 1437 1445 1445 1444 1440 1449 1450 1452 1452 1446 1444 1442 1434 1431 1430 1431 1436 1451 1454 1459 1458 1460 1462 1463 1465 1471 1496 1498 1502 1497 1500 1507 1509 1509 1518 1524 1525
1393 1401 1408 1414 1418 1421 1424 1426 1427 1430 1435 1438 1438 1439 1437 1438 1444 1451 1451 1445 1441 1437 1434 1430 1432 1430 1434 1443 1443 1457 1456 1460 1463 1466 1469 1476 1501 1497 1510 1506 1505 1517 1519 1520 1524 1530 1534
1389 1396 1404 1409 1414 1417 1422 1424 1423 1426 1433 1434 1437 1436 1437 1434 1439 1446 1444 1439 1435 1434 1430 1428 1429 1430 1433 1432 1434 1440 1448 1450 1455 1464 1474 1482 1497 1508 1518 1511 1512 1524 1517 1518 1524 1526 1531
1385 1393 1400 1405 1409 1413 1415 1419 1425 1426 1428 1432 1437 1438 1435 1434 1435 1436 1437 1437 1432 1432 1430 1427 1428 1429 1435 1434 1439 1446 1452 1457 1460 1467 1469 1484 1495 1509 1523 1519 1537 1519 1515 1515 1524 1530 1531
1384 1391 1396 1402 1406 1410 1414 1415 1415 1421 1426 1430 1434 1437 1435 1429 1432 1433 1434 1434 1431 1429 1429 1427 1428 1430 1432 1434 1447 1463 1474 1470 1474 1477 1475 1475 1492 1517 1529 1532 1523 1517 1518 1518 1518 1532 1533
1383 1389 1394 1398 1403 1407 1410 1413 1416 1419 1423 1427 1430 1432 1436 1437 1429 1429 1430 1430 1431 1432 1431 1430 1431 1432 1434 1441 1457 1478 1489 1483 1485 1482 1480 1480 1485 1501 1531 1523 1528 1512 1507 1509 1511 1536 1531
1382 1387 1392 1397 1400 1404 1406 1410 1413 1415 1418 1423 1427 1430 1440 1437 1426 1426 1426 1426 1426 1429 1431 1432 1433 1435 1436 1450 1469 1480 1484 1477 1487 1490 1488 1497 1502 1511 1523 1527 1517 1504 1505 1509 1525 1531 1524
1380 1385 1389 1393 1396 1399 1402 1405 1407 1411 1414 1419 1424 1429 1438 1433 1426 1424 1425 1424 1424 1425 1428 1430 1435 1437 1443 1456 1466 1477 1480 1482 1486 1488 1487 1493 1505 1513 1518 1522 1518 1503 1507 1513 1513 1515 1519
1379 1382 1386 1389 1393 1395 1397 1401 1404 1407 1411 1417 1423 1427 1434 1436 1427 1424 1423 1422 1421 1422 1423 1427 1429 1432 1437 1452 1462 1470 1478 1481 1486 1495 1486 1495 1495 1504 1508 1509 1505 1504 1505 1505 1507 1510 1522